Needles, CA

4:07 AM PST on January 22, 2017 (GMT -0800)
Needles

Weather History for KEED - September, 2014

Change the Weather History Date:

Friday, September 19, 2014

  Actual Average Record
Temperature  
Mean Temperature 90 °F 86 °F  
Max Temperature 100 °F 99 °F 111 °F (1962)
Min Temperature 81 °F 73 °F 52 °F (1909)
Degree Days  
Heating Degree Days 0    
Cooling Degree Days 26    
Growing Degree Days 40 (Base 50)    
Moisture  
Dew Point 46 °F    
Average Humidity 22    
Maximum Humidity 35    
Minimum Humidity 12    
Precipitation  
Precipitation 0.00 in 0.02 in 0.19 in (1985)
Month to date precipitation 0.32  
Year to date precipitation 3.34  
Sea Level Pressure  
Sea Level Pressure 29.66 in    
Wind  
Wind Speed 6 mph (WSW)    
Max Wind Speed 15 mph    
Max Gust Speed 20 mph    
Visibility 10 miles    
Events      
T = Trace of Precipitation, MM = Missing Value Source: NWS Daily Summary

Daily Weather History Graph

Daily Weather History Graph

Search for Another Location

Airport or City:

Trip Planner

Search our weather history database for the weather conditions in past years. The results will help you decide how hot, cold, wet, or windy it might be!

Date:

Astronomy

Sep. 19, 2014 Rise Set
Actual Time 6:24 AM PDT 6:39 PM PDT
Civil Twilight 5:59 AM PDT 7:04 PM PDT
Nautical Twilight 5:29 AM PDT 7:34 PM PDT
Astronomical Twilight 4:59 AM PDT 8:03 PM PDT
Moon 2:21 AM PDT (9/19) 4:03 PM PDT (9/19)
Length of Visible Light 13h 05m
Length of Day
12h 15m
Waning Crescent, 17% of the Moon is Illuminated
Sep 19
Waning Crescent
Sep 23
New
Oct 1
First Quarter
Oct 8
Full
Oct 15
Last Quarter

Hourly Weather History & Observations

Time (PDT) Temp. Dew Point Humidity Pressure Visibility Wind Dir Wind Speed Gust Speed Precip Events Conditions
12:56 AM 91.0 °F 46.9 °F 22% 29.58 in 10.0 mi Calm Calm - N/A   Clear
1:56 AM 89.1 °F 44.1 °F 21% 29.60 in 10.0 mi WNW 10.4 mph - N/A   Clear
2:56 AM 87.1 °F 44.1 °F 22% 29.60 in 10.0 mi West 8.1 mph - N/A   Scattered Clouds
3:56 AM 86.0 °F 44.1 °F 23% 29.61 in 10.0 mi WNW 5.8 mph - N/A   Clear
4:56 AM 84.0 °F 46.0 °F 26% 29.62 in 10.0 mi West 6.9 mph - N/A   Clear
5:56 AM 82.0 °F 48.9 °F 31% 29.65 in 10.0 mi WSW 10.4 mph - N/A   Clear
6:56 AM 81.0 °F 51.1 °F 35% 29.67 in 10.0 mi WSW 8.1 mph - N/A   Clear
7:56 AM 86.0 °F 52.0 °F 31% 29.69 in 10.0 mi WSW 5.8 mph - N/A   Clear
8:56 AM 89.1 °F 51.1 °F 27% 29.71 in 10.0 mi Variable 4.6 mph - N/A   Clear
9:56 AM 91.0 °F 50.0 °F 24% 29.72 in 10.0 mi Calm Calm - N/A   Clear
10:56 AM 93.9 °F 51.1 °F 23% 29.71 in 10.0 mi Variable 3.5 mph - N/A   Clear
11:56 AM 96.1 °F 51.1 °F 22% 29.70 in 10.0 mi NNE 4.6 mph - N/A   Clear
12:56 PM 99.0 °F 46.0 °F 16% 29.68 in 10.0 mi WSW 13.8 mph - N/A   Clear
1:56 PM 99.0 °F 41.0 °F 14% 29.67 in 10.0 mi SW 9.2 mph - N/A   Clear
2:56 PM 100.0 °F 37.9 °F 12% 29.65 in 10.0 mi SSW 15.0 mph 19.6 mph N/A   Clear
3:56 PM 100.9 °F 42.1 °F 13% 29.63 in 10.0 mi SSW 10.4 mph - N/A   Clear
4:56 PM 100.0 °F 41.0 °F 13% 29.63 in 10.0 mi SE 5.8 mph - N/A   Clear
5:56 PM 98.1 °F 42.1 °F 15% 29.64 in 10.0 mi South 9.2 mph - N/A   Clear
6:56 PM 96.1 °F 46.0 °F 18% 29.65 in 10.0 mi SSW 6.9 mph - N/A   Clear
7:56 PM 93.0 °F 48.0 °F 21% 29.66 in 10.0 mi WSW 8.1 mph - N/A   Clear
8:56 PM 91.0 °F 46.0 °F 21% 29.68 in 10.0 mi WSW 8.1 mph - N/A   Clear
9:56 PM 89.1 °F 45.0 °F 22% 29.68 in 10.0 mi West 9.2 mph - N/A   Clear
10:56 PM 87.1 °F 45.0 °F 23% 29.69 in 10.0 mi North 6.9 mph - N/A   Clear
11:56 PM 87.1 °F 45.0 °F 23% 29.70 in 10.0 mi SSW 4.6 mph - N/A   Clear